Starlink 11537

operational
NORAD ID: 62911 Int'l Des: 2025-027 Owner: SPXS Country: US Constellation: starlink
LEOCIRCULAR

About Starlink 11537

Description loading...

Live Position

Loading 3D Globe...

Upcoming Passes

Altitude History

Altitude vs Time

uPlot chart will show altitude changes over time

Two-Line Element Set

1 62911U 25027E 25303.67438932 .00003183 00000-0 28299-4 0 9999
2 62911 42.9999 51.3933 0001208 299.8711 60.2036 15.70828898 42745
Epoch: Oct 30, 2025 • Age: 27 hours

Current Status

Altitude 363.3 km
Velocity 7.69 km/s
Sub-Earth Point -28.88°S, 36.22°E
Launch Date Feb 8, 2025
Age 0.7 years
Type internet

Technical Details

Classification Payload
Mass 960.00 kg
Dry Mass 910.00 kg
Total Mass 960.00 kg
Length 0.30 m
Diameter 4.10 m
Span 29.00 m
Shape Box + pan
Manufacturer SPXS
Bus Type Starlink V2MD
Phase Status In Orbit
Owner/State SPXS/US

Large Constellations

Loading constellations...